TimeCST,TemperatureF,Dew PointF,Humidity,Sea Level PressureIn,VisibilityMPH,Wind Direction,Wind SpeedMPH,Gust SpeedMPH,PrecipitationIn,Events,Conditions,WindDirDegrees,DateUTC
12:15 AM,24.4,21.2,87,30.22,10.0,WNW,9.2,-,N/A,,Overcast,300,2013-12-26 06:15:00
12:35 AM,22.8,20.3,90,30.22,10.0,WNW,8.1,-,N/A,,Mostly Cloudy,290,2013-12-26 06:35:00
12:55 AM,21.0,18.9,91,30.23,10.0,WNW,8.1,-,N/A,,Clear,290,2013-12-26 06:55:00
1:15 AM,19.4,17.8,93,30.24,10.0,West,6.9,-,N/A,,Scattered Clouds,280,2013-12-26 07:15:00
1:35 AM,17.8,16.5,95,30.24,10.0,West,6.9,-,N/A,,Scattered Clouds,280,2013-12-26 07:35:00
1:55 AM,16.7,15.6,96,30.25,10.0,West,6.9,-,N/A,,Clear,270,2013-12-26 07:55:00
2:15 AM,16.3,15.6,97,30.25,10.0,West,5.8,-,N/A,,Clear,280,2013-12-26 08:15:00
2:35 AM,16.0,15.3,97,30.24,10.0,West,4.6,-,N/A,,Clear,270,2013-12-26 08:35:00
2:55 AM,15.8,15.6,99,30.25,10.0,WSW,4.6,-,N/A,,Clear,250,2013-12-26 08:55:00
3:15 AM,15.1,14.7,98,30.24,10.0,SSW,3.5,-,N/A,,Clear,200,2013-12-26 09:15:00
3:35 AM,15.8,15.6,99,30.25,10.0,SW,3.5,-,N/A,,Clear,230,2013-12-26 09:35:00
3:55 AM,15.1,14.7,98,30.24,10.0,SW,4.6,-,N/A,,Clear,220,2013-12-26 09:55:00
4:15 AM,15.1,14.4,97,30.24,10.0,SSW,4.6,-,N/A,,Clear,200,2013-12-26 10:15:00
4:35 AM,14.0,13.3,97,30.23,10.0,SSW,4.6,-,N/A,,Clear,210,2013-12-26 10:35:00
4:55 AM,13.8,13.1,97,30.24,10.0,SSW,3.5,-,N/A,,Clear,210,2013-12-26 10:55:00
5:15 AM,14.0,13.3,97,30.23,10.0,South,3.5,-,N/A,,Scattered Clouds,190,2013-12-26 11:15:00
5:35 AM,14.4,13.1,95,30.23,10.0,SSW,4.6,-,N/A,,Overcast,200,2013-12-26 11:35:00
5:55 AM,15.1,14.2,96,30.23,10.0,SSW,6.9,-,N/A,,Overcast,200,2013-12-26 11:55:00
6:15 AM,16.7,15.8,96,30.24,10.0,SSW,6.9,-,N/A,,Overcast,200,2013-12-26 12:15:00
6:35 AM,18.5,17.8,97,30.24,10.0,SSW,8.1,-,N/A,,Overcast,210,2013-12-26 12:35:00
6:55 AM,19.8,18.5,95,30.25,10.0,SSW,9.2,-,N/A,,Overcast,200,2013-12-26 12:55:00
7:15 AM,20.1,18.9,95,30.25,10.0,South,8.1,-,N/A,,Overcast,190,2013-12-26 13:15:00
7:35 AM,19.2,18.0,95,30.26,10.0,South,6.9,-,N/A,,Scattered Clouds,190,2013-12-26 13:35:00
7:55 AM,19.8,18.1,93,30.27,10.0,South,5.8,-,N/A,,Clear,190,2013-12-26 13:55:00
8:15 AM,20.3,18.1,91,30.27,10.0,South,6.9,-,N/A,,Clear,190,2013-12-26 14:15:00
8:35 AM,21.9,18.9,88,30.27,10.0,South,6.9,-,N/A,,Clear,180,2013-12-26 14:35:00
8:55 AM,23.0,19.4,86,30.27,10.0,South,8.1,-,N/A,,Clear,190,2013-12-26 14:55:00
9:15 AM,24.8,20.3,83,30.27,10.0,South,5.8,-,N/A,,Clear,170,2013-12-26 15:15:00
9:35 AM,25.7,20.8,82,30.28,10.0,South,8.1,-,N/A,,Clear,190,2013-12-26 15:35:00
9:55 AM,26.6,21.2,80,30.28,10.0,South,6.9,-,N/A,,Clear,170,2013-12-26 15:55:00
10:15 AM,27.9,21.7,78,30.27,10.0,South,8.1,-,N/A,,Clear,170,2013-12-26 16:15:00
10:35 AM,28.4,22.5,78,30.26,10.0,South,8.1,-,N/A,,Clear,170,2013-12-26 16:35:00
10:55 AM,30.0,22.8,75,30.25,10.0,SSE,9.2,-,N/A,,Scattered Clouds,160,2013-12-26 16:55:00
11:15 AM,31.1,23.7,74,30.24,10.0,South,9.2,-,N/A,,Mostly Cloudy,170,2013-12-26 17:15:00
11:35 AM,31.8,24.4,74,30.23,10.0,South,11.5,-,N/A,,Overcast,180,2013-12-26 17:35:00
11:55 AM,31.8,25.2,76,30.22,10.0,South,11.5,-,N/A,,Overcast,190,2013-12-26 17:55:00
12:15 PM,32.0,26.1,79,30.21,10.0,South,13.8,-,N/A,,Overcast,190,2013-12-26 18:15:00
12:35 PM,32.9,26.6,78,30.20,10.0,South,12.7,-,N/A,,Overcast,180,2013-12-26 18:35:00
12:55 PM,32.9,27.3,80,30.19,10.0,South,11.5,-,N/A,,Overcast,190,2013-12-26 18:55:00
1:15 PM,33.6,28.0,80,30.18,10.0,South,10.4,-,N/A,,Overcast,180,2013-12-26 19:15:00
1:35 PM,34.5,28.9,80,30.17,10.0,South,11.5,-,N/A,,Overcast,180,2013-12-26 19:35:00
1:55 PM,34.9,29.3,80,30.16,10.0,South,11.5,-,N/A,,Mostly Cloudy,180,2013-12-26 19:55:00
2:15 PM,34.9,29.7,81,30.16,10.0,South,11.5,16.1,N/A,,Mostly Cloudy,190,2013-12-26 20:15:00
2:35 PM,34.9,30.2,83,30.16,10.0,South,11.5,-,N/A,,Mostly Cloudy,190,2013-12-26 20:35:00
2:55 PM,35.1,30.7,84,30.15,10.0,South,9.2,-,N/A,,Mostly Cloudy,170,2013-12-26 20:55:00
3:15 PM,34.7,30.9,86,30.13,10.0,SSE,11.5,-,N/A,,Mostly Cloudy,160,2013-12-26 21:15:00
3:35 PM,35.1,31.3,86,30.14,10.0,South,9.2,-,N/A,,Overcast,170,2013-12-26 21:35:00
3:55 PM,35.4,31.5,85,30.14,10.0,South,9.2,-,N/A,,Overcast,190,2013-12-26 21:55:00
4:15 PM,35.6,31.6,85,30.15,10.0,South,9.2,-,N/A,,Overcast,190,2013-12-26 22:15:00
4:35 PM,35.1,31.6,87,30.16,10.0,South,8.1,-,N/A,,Mostly Cloudy,180,2013-12-26 22:35:00
4:55 PM,35.1,32.0,89,30.16,10.0,South,10.4,-,N/A,,Overcast,190,2013-12-26 22:55:00
5:15 PM,33.6,31.6,92,30.16,10.0,South,5.8,-,N/A,,Mostly Cloudy,190,2013-12-26 23:15:00
5:35 PM,33.3,31.5,93,30.17,10.0,South,6.9,-,N/A,,Mostly Cloudy,190,2013-12-26 23:35:00
5:55 PM,32.2,31.1,96,30.17,10.0,South,5.8,-,N/A,,Scattered Clouds,190,2013-12-26 23:55:00
6:15 PM,31.5,30.2,95,30.18,10.0,SSW,3.5,-,N/A,,Clear,210,2013-12-27 00:15:00
6:35 PM,31.1,30.2,96,30.18,10.0,Calm,Calm,-,N/A,,Clear,0,2013-12-27 00:35:00
6:55 PM,30.7,29.3,94,30.19,10.0,SSW,4.6,-,N/A,,Clear,210,2013-12-27 00:55:00
7:15 PM,30.4,28.9,94,30.19,10.0,SSW,5.8,-,N/A,,Clear,210,2013-12-27 01:15:00
7:35 PM,30.2,29.1,96,30.19,10.0,SSW,5.8,-,N/A,,Clear,210,2013-12-27 01:35:00
7:55 PM,29.8,28.9,96,30.19,10.0,SSW,6.9,-,N/A,,Clear,200,2013-12-27 01:55:00
8:15 PM,29.1,28.4,97,30.20,10.0,SSW,6.9,-,N/A,,Clear,210,2013-12-27 02:15:00
8:35 PM,29.3,28.4,96,30.19,10.0,SSW,6.9,-,N/A,,Clear,210,2013-12-27 02:35:00
8:55 PM,29.5,28.4,96,30.20,10.0,SSW,6.9,-,N/A,,Clear,210,2013-12-27 02:55:00
9:15 PM,30.4,29.1,95,30.21,10.0,SW,5.8,-,N/A,,Clear,230,2013-12-27 03:15:00
9:35 PM,31.1,29.3,93,30.21,10.0,SW,6.9,-,N/A,,Clear,230,2013-12-27 03:35:00
9:55 PM,30.7,28.9,93,30.22,10.0,SW,5.8,-,N/A,,Clear,230,2013-12-27 03:55:00
10:15 PM,28.9,27.0,92,30.22,10.0,Calm,Calm,-,N/A,,Clear,0,2013-12-27 04:15:00
10:35 PM,28.4,27.7,97,30.23,10.0,SSW,3.5,-,N/A,,Clear,210,2013-12-27 04:35:00
10:55 PM,27.5,27.0,98,30.22,10.0,SSW,5.8,-,N/A,,Clear,210,2013-12-27 04:55:00
11:15 PM,27.9,27.3,98,30.23,10.0,SW,3.5,-,N/A,,Clear,220,2013-12-27 05:15:00
11:35 PM,26.4,26.4,100,30.23,10.0,SW,4.6,-,N/A,,Clear,220,2013-12-27 05:35:00
11:55 PM,26.6,26.6,100,30.23,10.0,SW,4.6,-,N/A,,Clear,230,2013-12-27 05:55:00